Overview Statistics Trail Chart Weather Telemetry Raw packets
 

This is the latest recevied weather packets stored in our database for station/object KF7SOJ. If no packets are shown the sender has not sent any weather packets the latest 10 day(s).

<< 30 31 32 33 34 35 36 >>
Time Temp. Humidity Pressure Rain* Wind** Luminosity Snow
1788408715 21.67° C 31% 924.9 hPa 0 mm - 0 W/m² -
1788408414 21.11° C 31% 925.1 hPa 0 mm - 0 W/m² -
1788408110 21.11° C 32% 924.8 hPa 0 mm - 0 W/m² -
1788407805 21.11° C 32% 924.7 hPa 0 mm - 0 W/m² -
1788407496 21.67° C 31% 924.8 hPa 0 mm - 0 W/m² -
1788407196 21.67° C 31% 924.8 hPa 0 mm - 0 W/m² -
1788406891 21.67° C 30% 924.7 hPa 0 mm - 0 W/m² -
1788406586 21.67° C 31% 924.7 hPa 0 mm - 0 W/m² -
1788406286 22.22° C 30% 924.8 hPa 0 mm - 0 W/m² -
1788405981 22.22° C 30% 924.6 hPa 0 mm - 0 W/m² -
1788405677 22.22° C 30% 924.6 hPa 0 mm - 0 W/m² -
1788405372 22.78° C 29% 924.4 hPa 0 mm - 0 W/m² -
1788405067 22.78° C 28% 924.3 hPa 0 mm - 0 W/m² -
1788404762 22.78° C 27% 924.2 hPa 0 mm - 0 W/m² -
1788404458 22.78° C 25% 924.2 hPa 0 mm - 0 W/m² -
1788404153 23.89° C 24% 924.3 hPa 0 mm - 0 W/m² -
1788403849 23.89° C 23% 923.9 hPa 0 mm - 0 W/m² -
1788403549 24.44° C 23% 923.9 hPa 0 mm - 0 W/m² -
1788403243 23.89° C 24% 923.7 hPa 0 mm - 0 W/m² -
1788402939 22.78° C 29% 923.8 hPa 0 mm - 0 W/m² -
1788402634 22.78° C 30% 923.7 hPa 0 mm - 0 W/m² -
1788402333 23.33° C 30% 923.8 hPa 0 mm - 0 W/m² -
1788402032 23.89° C 29% 923.5 hPa 0 mm - 0 W/m² -
1788401727 24.44° C 29% 923.6 hPa 0 mm - 0 W/m² -
1788401422 25.56° C 27% 923.3 hPa 0 mm - 0 W/m² -

* Rain latest hour (hover to see other rain measurements)
** Current wind speed in m/s (hover to see current wind gust speed)